EW3994 Weather Reports


Display with metric or nautical units.
time (UTC)temp
F
wind
direction
speed
MPH
gust
MPH
rain 1hr
in
rain 24hr
in
rain mn
in
humidity
%
barometer
mb
20260906022728 57 165 2.0 6.0 0.00 0.04 0.03 63 1023.6
20260906021828 57 155 1.0 3.0 0.00 0.04 0.03 63 1023.7
20260906020928 57 169 2.0 5.0 0.00 0.06 0.03 64 1023.7
20260906014228 56 262 3.0 5.0 0.00 0.06 0.03 63 1024.0
20260906012428 58 287 2.0 8.0 0.00 0.06 0.03 63 1024.1
20260906011528 57 331 3.0 5.0 0.00 0.06 0.03 65 1024.1
20260906010627 57 339 2.0 6.0 0.00 0.06 0.03 65 1024.1
20260906005728 57 307 1.0 3.0 0.00 0.06 0.03 65 1024.0
20260906004827 56 294 1.0 3.0 0.00 0.06 0.03 65 1024.0
20260906003927 56 285 2.0 4.0 0.00 0.06 0.03 65 1024.0
20260906003028 56 269 2.0 6.0 0.00 0.06 0.03 64 1024.0
20260906002127 55 271 5.0 10.0 0.00 0.06 0.03 63 1024.0
20260906001227 56 262 3.0 11.0 0.00 0.06 0.03 62 1024.0
20260905235427 58 298 1.0 3.0 0.01 0.06 0.03 66 1023.8
20260905234527 56 295 2.0 4.0 0.01 0.06 0.03 67 1023.7
20260905233627 55 299 2.0 4.0 0.01 0.06 0.03 67 1023.7
20260905232727 55 297 2.0 4.0 0.01 0.06 0.03 68 1023.6
20260905230927 55 290 1.0 4.0 0.01 0.09 0.03 67 1023.4
20260905230027 54 124 0.0 1.0 0.02 0.09 0.03 67 1023.3
20260905225127 53 125 1.0 2.0 0.01 0.08 0.02 67 1023.2
20260905224227 53 124 0.0 1.0 0.01 0.08 0.02 66 1023.1
20260905223327 54 191 1.0 3.0 0.01 0.08 0.02 66 1023.1
20260905222427 55 186 1.0 3.0 0.02 0.08 0.02 66 1022.8
20260905221527 54 186 1.0 2.0 0.02 0.08 0.02 66 1022.7
20260905220629 53 207 1.0 2.0 0.02 0.08 0.02 65 1022.4
20260905214827 53 224 2.0 3.0 0.01 0.07 0.02 65 1022.4
20260905213928 53 216 1.0 4.0 0.01 0.07 0.02 65 1022.2
20260905213027 52 221 1.0 4.0 0.01 0.07 0.02 65 1022.1
20260905212127 52 192 1.0 3.0 0.00 0.06 0.01 64 1021.9
20260905211227 52 168 1.0 5.0 0.00 0.06 0.01 64 1021.7
20260905205427 52 168 0.0 2.0 0.00 0.06 0.01 64 1021.5
20260905204527 52 168 1.0 4.0 0.00 0.06 0.01 64 1021.4
20260905203627 52 212 2.0 4.0 0.00 0.06 0.01 65 1021.4
20260905202727 52 260 4.0 9.0 0.00 0.06 0.01 64 1021.3
20260905201827 52 253 2.0 9.0 0.00 0.06 0.01 64 1021.2
20260905200927 52 262 2.0 3.0 0.00 0.06 0.01 64 1021.1
20260905200027 52 233 2.0 5.0 0.00 0.06 0.01 64 1021.0
20260905195127 52 231 3.0 9.0 0.00 0.06 0.01 64 1020.9
20260905194227 52 240 1.0 2.0 0.00 0.06 0.01 64 1020.9
20260905193327 52 254 1.0 3.0 0.00 0.06 0.01 64 1020.9
20260905192427 52 261 0.0 1.0 0.00 0.06 0.01 64 1020.8
20260905191527 53 262 0.0 2.0 0.00 0.06 0.01 64 1020.7
20260905184827 53 270 2.0 4.0 0.00 0.06 0.01 64 1020.6
20260905183927 53 263 1.0 3.0 0.00 0.06 0.01 64 1020.5
20260905183027 53 270 2.0 4.0 0.00 0.06 0.01 64 1020.3
20260905182127 53 269 3.0 7.0 0.00 0.06 0.01 64 1020.4
20260905181226 53 270 3.0 6.0 0.00 0.06 0.01 64 1020.3
20260905175427 54 271 3.0 6.0 0.00 0.06 0.01 64 1020.3
20260905174527 54 269 4.0 9.0 0.00 0.06 0.01 64 1020.4
20260905173627 53 277 4.0 8.0 0.00 0.06 0.01 64 1020.4
20260905171826 53 271 4.0 8.0 0.00 0.06 0.01 64 1020.5
20260905170026 53 268 4.0 10.0 0.00 0.06 0.01 64 1020.8
20260905165126 53 265 7.0 12.0 0.00 0.06 0.01 64 1020.8
20260905164227 53 268 4.0 9.0 0.00 0.06 0.01 64 1020.8
20260905163326 53 273 2.0 6.0 0.00 0.06 0.01 64 1020.8
20260905162426 53 280 2.0 5.0 0.01 0.06 0.01 64 1020.7
20260905161526 53 280 2.0 4.0 0.01 0.06 0.01 64 1020.8
20260905160626 53 271 3.0 5.0 0.01 0.06 0.01 64 1020.9
20260905155726 54 263 2.0 4.0 0.01 0.06 0.01 64 1020.9
20260905154826 54 257 3.0 7.0 0.01 0.06 0.01 64 1020.9
20260905153926 54 255 6.0 14.0 0.01 0.06 0.01 64 1021.0
20260905153026 54 256 8.0 16.0 0.00 0.06 0.00 64 1020.9
20260905152126 54 268 5.0 12.0 0.00 0.06 0.00 64 1020.8
20260905151226 54 270 5.0 9.0 0.00 0.06 0.00 64 1020.7
20260905150326 54 269 7.0 12.0 0.00 0.06 0.00 64 1020.7
20260905145426 54 270 4.0 11.0 0.00 0.06 0.00 64 1020.6
20260905144526 54 268 4.0 8.0 0.00 0.06 0.00 64 1020.6
20260905143627 54 269 5.0 9.0 0.00 0.06 0.00 64 1020.5
20260905142726 55 268 5.0 10.0 0.00 0.06 0.06 64 1020.6
20260905140926 55 267 7.0 11.0 0.00 0.06 0.06 64 1020.7
20260905140026 55 268 5.0 9.0 0.00 0.06 0.06 64 1020.6
20260905134226 55 280 6.0 12.0 0.00 0.06 0.06 64 1020.5
20260905133326 55 280 5.0 10.0 0.00 0.06 0.06 64 1020.5
20260905132426 55 280 5.0 9.0 0.00 0.06 0.06 64 1020.4
20260905130626 55 275 6.0 10.0 0.00 0.06 0.06 63 1020.4
20260905125726 55 265 7.0 11.0 0.00 0.06 0.06 63 1020.3
20260905124826 55 273 7.0 11.0 0.00 0.06 0.06 63 1020.2
20260905123926 55 275 6.0 11.0 0.00 0.06 0.06 63 1020.3
20260905123026 55 266 7.0 14.0 0.00 0.06 0.06 63 1020.0
20260905122126 55 267 5.0 12.0 0.00 0.06 0.06 63 1019.9
20260905121226 55 263 6.0 11.0 0.00 0.06 0.06 63 1019.8
20260905120326 55 263 7.0 15.0 0.00 0.06 0.06 63 1019.7
20260905115426 55 269 6.0 11.0 0.00 0.06 0.06 63 1019.6
20260905113626 55 260 8.0 14.0 0.00 0.06 0.06 63 1019.5
20260905112725 55 263 7.0 16.0 0.00 0.06 0.06 63 1019.5
20260905110926 55 268 4.0 9.0 0.00 0.06 0.06 63 1019.3
20260905110027 55 268 4.0 8.0 0.00 0.06 0.06 63 1019.3
20260905105126 54 268 3.0 8.0 0.00 0.06 0.06 63 1019.1
20260905104226 54 270 4.0 7.0 0.00 0.06 0.06 62 1019.1
20260905102426 55 267 9.0 16.0 0.00 0.06 0.06 61 1018.8
20260905101526 55 259 10.0 21.0 0.00 0.06 0.06 61 1018.7
20260905095727 55 253 7.0 14.0 0.01 0.06 0.06 60 1018.3
20260905093925 56 250 10.0 17.0 0.01 0.06 0.06 59 1018.1
20260905093026 56 256 8.0 16.0 0.01 0.06 0.06 59 1017.8
20260905092125 56 256 9.0 17.0 0.01 0.06 0.06 59 1017.8
20260905091225 56 257 10.0 18.0 0.01 0.06 0.06 58 1017.6
20260905090326 56 258 10.0 17.0 0.00 0.05 0.05 57 1017.5
20260905085426 57 250 8.0 16.0 0.00 0.05 0.05 55 1017.5
20260905084525 58 259 11.0 20.0 0.00 0.05 0.05 52 1017.3
20260905083625 58 263 12.0 19.0 0.00 0.05 0.05 51 1016.9
20260905082725 58 256 12.0 21.0 0.00 0.05 0.05 52 1016.8
20260905081825 58 255 12.0 22.0 0.00 0.05 0.05 51 1016.5
20260905080925 58 263 11.0 22.0 0.00 0.05 0.05 51 1016.2
20260905080025 58 262 12.0 22.0 0.00 0.05 0.05 52 1016.0
20260905075125 59 268 13.0 24.0 0.00 0.05 0.05 51 1015.7
20260905074226 59 276 13.0 22.0 0.00 0.05 0.05 51 1015.6
20260905073325 59 265 15.0 25.0 0.00 0.05 0.05 51 1015.4
20260905071525 59 269 15.0 26.0 0.00 0.05 0.05 50 1015.2
20260905070625 59 264 14.0 25.0 0.00 0.05 0.05 51 1015.2
20260905065725 58 269 14.0 25.0 0.00 0.05 0.05 53 1015.1
20260905064825 60 265 15.0 27.0 0.00 0.05 0.05 49 1015.1
20260905063925 61 268 15.0 30.0 0.00 0.05 0.05 46 1015.0
20260905063025 61 262 15.0 24.0 0.00 0.05 0.05 51 1015.0
20260905062125 61 262 13.0 23.0 0.00 0.05 0.05 49 1014.9
20260905061225 61 264 16.0 30.0 0.00 0.05 0.05 50 1014.8
20260905060325 60 265 13.0 25.0 0.00 0.05 0.05 51 1014.7
20260905054527 59 267 18.0 35.0 0.00 0.05 0.05 52 1014.5
20260905052725 61 275 18.0 30.0 0.00 0.05 0.05 46 1014.2
20260905051825 62 274 16.0 29.0 0.00 0.05 0.05 46 1014.2
20260905050925 62 274 16.0 27.0 0.00 0.05 0.05 46 1014.2
20260905050025 62 273 15.0 28.0 0.00 0.05 0.05 49 1014.2
20260905045125 60 273 15.0 28.0 0.00 0.05 0.05 50 1014.2
20260905043325 61 273 18.0 34.0 0.00 0.05 0.05 48 1013.7
20260905042425 62 279 17.0 30.0 0.00 0.05 0.05 46 1013.5
20260905041525 62 281 17.0 30.0 0.00 0.05 0.05 46 1013.5
20260905040625 62 273 18.0 31.0 0.00 0.05 0.05 46 1013.4
20260905033925 60 273 17.0 29.0 0.00 0.05 0.05 49 1013.7
20260905033026 60 276 15.0 32.0 0.00 0.05 0.05 49 1013.8
20260905032125 60 272 16.0 29.0 0.00 0.05 0.05 50 1013.9
20260905030325 58 267 16.0 29.0 0.02 0.05 0.05 53 1013.7
20260905025425 59 267 12.0 26.0 0.02 0.05 0.05 54 1013.6
20260905023626 60 270 8.0 17.0 0.02 0.05 0.05 62 1013.8